TimeEDT,TemperatureF,Dew PointF,Humidity,Sea Level PressureIn,VisibilityMPH,Wind Direction,Wind SpeedMPH,Gust SpeedMPH,PrecipitationIn,Events,Conditions,WindDirDegrees,DateUTC
12:16 AM,59.0,52.7,80,29.91,10.0,NE,4.6,-,N/A,,Overcast,40,2012-10-03 04:16:00
12:35 AM,59.0,52.7,80,29.91,10.0,NE,5.8,-,N/A,,Overcast,50,2012-10-03 04:35:00
12:55 AM,58.6,52.9,81,29.90,10.0,NNE,6.9,-,N/A,Rain,Light Rain,30,2012-10-03 04:55:00
1:15 AM,57.7,53.2,85,29.90,10.0,Calm,Calm,-,N/A,,Overcast,0,2012-10-03 05:15:00
1:35 AM,58.1,53.6,85,29.91,10.0,Calm,Calm,-,N/A,,Light Drizzle,0,2012-10-03 05:35:00
1:55 AM,57.2,53.6,88,29.91,10.0,Calm,Calm,-,N/A,,Overcast,0,2012-10-03 05:55:00
2:15 AM,57.9,54.1,87,29.91,10.0,Calm,Calm,-,N/A,,Overcast,0,2012-10-03 06:15:00
2:35 AM,57.7,54.3,88,29.91,10.0,Calm,Calm,-,N/A,,Overcast,0,2012-10-03 06:35:00
2:55 AM,58.1,54.5,88,29.92,10.0,Calm,Calm,-,N/A,Rain,Light Rain,0,2012-10-03 06:55:00
3:15 AM,57.6,54.5,90,29.93,10.0,Calm,Calm,-,N/A,Rain,Rain,0,2012-10-03 07:15:00
3:35 AM,57.4,54.1,89,29.93,10.0,Calm,Calm,-,N/A,,Overcast,0,2012-10-03 07:35:00
3:55 AM,57.2,54.1,89,29.93,10.0,Calm,Calm,-,N/A,,Overcast,0,2012-10-03 07:55:00
4:15 AM,57.0,54.0,89,29.93,10.0,Calm,Calm,-,N/A,,Overcast,0,2012-10-03 08:15:00
4:35 AM,57.2,54.0,89,29.93,10.0,Calm,Calm,-,N/A,,Overcast,0,2012-10-03 08:35:00
5:15 AM,57.2,54.1,89,29.93,10.0,Calm,Calm,-,N/A,,Overcast,0,2012-10-03 09:15:00
5:35 AM,57.2,54.1,89,29.93,10.0,Calm,Calm,-,N/A,,Overcast,0,2012-10-03 09:35:00
5:55 AM,57.0,53.8,89,29.93,10.0,Calm,Calm,-,N/A,,Overcast,0,2012-10-03 09:55:00
6:15 AM,56.7,53.6,89,29.94,10.0,Calm,Calm,-,N/A,,Overcast,0,2012-10-03 10:15:00
6:56 AM,56.5,53.6,90,29.94,10.0,NNE,3.5,-,N/A,,Overcast,30,2012-10-03 10:56:00
7:15 AM,56.7,53.8,90,29.95,10.0,Calm,Calm,-,N/A,,Overcast,0,2012-10-03 11:15:00
7:35 AM,56.8,54.0,90,29.96,10.0,Calm,Calm,-,N/A,,Overcast,0,2012-10-03 11:35:00
8:15 AM,57.2,54.5,91,29.96,10.0,Calm,Calm,-,N/A,,Overcast,0,2012-10-03 12:15:00
8:35 AM,57.4,54.7,91,29.97,10.0,Calm,Calm,-,N/A,,Overcast,0,2012-10-03 12:35:00
8:55 AM,57.6,54.7,90,29.97,10.0,Calm,Calm,-,N/A,,Overcast,0,2012-10-03 12:55:00
9:15 AM,57.7,55.0,91,29.98,7.0,Calm,Calm,-,N/A,,Overcast,0,2012-10-03 13:15:00
9:35 AM,58.1,55.4,91,29.98,7.0,Calm,Calm,-,N/A,Rain,Light Rain,0,2012-10-03 13:35:00
9:55 AM,58.8,56.1,91,29.98,10.0,Calm,Calm,-,N/A,,Overcast,0,2012-10-03 13:55:00
10:15 AM,59.4,56.5,90,29.98,7.0,Calm,Calm,-,N/A,,Overcast,0,2012-10-03 14:15:00
10:35 AM,60.4,57.2,89,29.98,7.0,Calm,Calm,-,N/A,,Overcast,0,2012-10-03 14:35:00
10:55 AM,61.9,58.3,88,29.99,7.0,South,5.8,-,N/A,,Overcast,190,2012-10-03 14:55:00
11:15 AM,62.6,58.3,86,29.98,7.0,SSW,4.6,-,N/A,,Overcast,200,2012-10-03 15:15:00
11:35 AM,63.7,58.3,83,29.98,7.0,SSW,8.1,-,N/A,,Overcast,200,2012-10-03 15:35:00
11:55 AM,64.6,57.4,77,29.98,10.0,SSW,8.1,-,N/A,,Overcast,200,2012-10-03 15:55:00
12:15 PM,63.5,56.7,78,29.98,10.0,SW,5.8,-,N/A,,Overcast,220,2012-10-03 16:15:00
12:35 PM,63.9,57.2,79,29.98,10.0,SSW,5.8,-,N/A,,Overcast,210,2012-10-03 16:35:00
12:55 PM,63.5,56.1,77,29.98,10.0,SSW,8.1,-,N/A,,Overcast,210,2012-10-03 16:55:00
1:15 PM,63.9,55.9,75,29.99,10.0,SSW,8.1,-,N/A,,Overcast,200,2012-10-03 17:15:00
1:35 PM,62.8,55.4,77,29.99,10.0,SSW,10.4,-,N/A,,Overcast,200,2012-10-03 17:35:00
1:55 PM,62.8,55.4,77,29.98,10.0,SSW,9.2,-,N/A,,Overcast,210,2012-10-03 17:55:00
2:15 PM,62.2,54.7,76,29.98,10.0,South,6.9,-,N/A,,Overcast,190,2012-10-03 18:15:00
2:36 PM,63.0,55.4,76,29.98,10.0,SW,5.8,-,N/A,,Overcast,220,2012-10-03 18:36:00
2:55 PM,64.2,54.9,72,29.98,10.0,South,5.8,-,N/A,,Overcast,190,2012-10-03 18:55:00
3:15 PM,63.7,53.6,70,29.98,10.0,South,9.2,-,N/A,,Overcast,180,2012-10-03 19:15:00
3:35 PM,63.3,53.8,71,29.98,7.0,SW,8.1,-,N/A,,Overcast,220,2012-10-03 19:35:00
3:55 PM,62.6,53.6,72,29.99,10.0,South,9.2,-,N/A,,Overcast,170,2012-10-03 19:55:00
4:15 PM,63.0,54.7,74,29.98,10.0,South,4.6,-,N/A,,Overcast,170,2012-10-03 20:15:00
4:35 PM,63.7,53.2,69,29.98,10.0,SSE,9.2,-,N/A,,Overcast,160,2012-10-03 20:35:00
4:55 PM,63.5,53.6,70,29.98,10.0,South,6.9,-,N/A,,Overcast,180,2012-10-03 20:55:00
5:15 PM,63.0,53.8,72,29.98,10.0,SSE,6.9,-,N/A,,Overcast,160,2012-10-03 21:15:00
5:35 PM,63.0,54.3,73,29.99,10.0,South,4.6,-,N/A,,Overcast,180,2012-10-03 21:35:00
5:55 PM,62.8,54.7,75,29.99,10.0,SSE,4.6,-,N/A,,Overcast,160,2012-10-03 21:55:00
6:15 PM,62.6,54.7,75,30.00,10.0,South,4.6,-,N/A,,Overcast,170,2012-10-03 22:15:00
6:55 PM,62.6,55.2,77,30.00,10.0,South,4.6,-,N/A,,Overcast,170,2012-10-03 22:55:00
7:15 PM,62.4,55.4,78,30.01,10.0,South,5.8,-,N/A,,Overcast,190,2012-10-03 23:15:00
7:35 PM,62.1,55.4,79,30.01,10.0,South,5.8,-,N/A,,Overcast,170,2012-10-03 23:35:00
7:56 PM,62.1,55.4,79,30.01,10.0,South,8.1,-,N/A,,Overcast,180,2012-10-03 23:56:00
8:15 PM,61.7,55.6,80,30.01,10.0,South,6.9,-,N/A,Rain,Rain,190,2012-10-04 00:15:00
8:35 PM,60.1,56.3,87,30.02,4.0,SSW,6.9,-,N/A,,Drizzle,200,2012-10-04 00:35:00
8:55 PM,59.4,56.8,91,30.02,5.0,South,5.8,-,N/A,,Light Drizzle,190,2012-10-04 00:55:00
9:15 PM,59.4,57.2,93,30.03,7.0,South,6.9,-,N/A,,Overcast,180,2012-10-04 01:15:00
9:35 PM,59.2,57.0,93,30.03,7.0,South,8.1,-,N/A,,Overcast,180,2012-10-04 01:35:00
9:55 PM,59.2,56.8,92,30.03,7.0,South,5.8,-,N/A,,Overcast,190,2012-10-04 01:55:00
10:15 PM,59.0,56.8,93,30.03,7.0,South,6.9,-,N/A,,Overcast,190,2012-10-04 02:15:00
10:35 PM,59.0,56.8,93,30.03,5.0,South,6.9,-,N/A,,Overcast,190,2012-10-04 02:35:00
10:55 PM,59.0,56.8,93,30.04,4.0,South,4.6,-,N/A,Rain,Rain,190,2012-10-04 02:55:00
11:15 PM,58.6,56.8,94,30.04,4.0,Calm,Calm,-,N/A,Rain,Light Rain,0,2012-10-04 03:15:00
11:35 PM,58.6,56.8,94,30.04,7.0,Calm,Calm,-,N/A,,Overcast,0,2012-10-04 03:35:00
11:55 PM,58.5,57.0,95,30.03,5.0,Calm,Calm,-,N/A,,Overcast,0,2012-10-04 03:55:00